Regional Weather Roundup
Issued by NWS

Home | Current Version | Previous Version | Text Only | Print | Product List | Glossary Off
Versions: 1 2 3 4 5 6 7 8 9 10 11 12 13 14 15 16 17 18 19 20 21 22 23 24 25 26 27 28 29 30 31 32 33 34 35 36 37 38 39 40 41 42 43 44 45 46 47 48 49 50

000
ASUS43 KMPX 192310
RWRMN
WEATHER ROUNDUP FOR MINNESOTA
NATIONAL WEATHER SERVICE TWIN CITIES/CHANHASSEN MN
600 PM CDT SAT APR 19 2014


NOTE: "FAIR" INDICATES FEW OR NO CLOUDS BELOW 12,000 FEET WITH NO
SIGNIFICANT WEATHER AND/OR OBSTRUCTIONS TO VISIBILITY. N/A MEANS
CURRENT SKY AND/OR WEATHER CONDITIONS ARE NOT AVAILABLE.

MNZ060>063-068>070-200000-
   Twin Cities Metro

CITY           SKY/WX    TMP DP  RH WIND       PRES   REMARKS
TWIN CITIES    LGT RAIN  61  50  67 SE6       29.99S
ST PAUL        LGT RAIN  57  48  72 SE10      30.00S
CRYSTAL        CLOUDY    65  47  52 S10       29.96F
BLAINE         CLOUDY    66  48  52 SE12      29.97S
EDEN PRAIRIE   CLOUDY    61  50  67 SE10      29.97S
LAKEVILLE      RAIN      57  54  88 CALM      29.99R
SOUTH ST PAUL  LGT RAIN  63  48  59 SE6       30.00R
LAKE ELMO      RAIN      61  45  55 SE7       30.01S
$$
MNZ001>005-007-008-013>017-022>024-027-028-200000-
   Northwest Minnesota

CITY           SKY/WX    TMP DP  RH WIND       PRES   REMARKS
BEMIDJI        SUNNY     64  29  27 W13G23    29.89S
HALLOCK        CLOUDY    55  39  54 W23       29.86R
ROSEAU         CLOUDY    55  43  62 W15G25    29.85R
WARROAD        CLOUDY    54  43  66 W16G26    29.85R
THIEF RVR FALL MOSUNNY   57  39  51 W20       29.90R
CROOKSTON      MOSUNNY   63  41  45 NW24      29.90R
FOSSTON        SUNNY     63  34  34 W17G24    29.91R
DETROIT LAKES  SUNNY     63  30  29 W15G21    29.94S
MOORHEAD       SUNNY     66  19  16 SW14G20   29.92S
PARK RAPIDS    SUNNY     64  27  24 W21       29.92R
$$
MNZ006-009>011-018-025>026-200000-
   North Central Minnesota

CITY           SKY/WX    TMP DP  RH WIND       PRES   REMARKS
BAUDETTE       SUNNY     59  37  44 SW14G25   29.84R
FLAG ISLAND    CLOUDY    52  36  54 SW20G33   29.80R
INTL FALLS     SUNNY     61  30  31 SW17G33   29.84S
WASKISH        SUNNY     54  36  50 SW15G22   29.88R
BIG FORK       SUNNY     63  28  27 SW18G24   29.89R
LONGVILLE      SUNNY     64  28  25 SW13      29.92R
GRAND RAPIDS   SUNNY     61  43  51 S13       29.92R
CRANE LAKE     MOSUNNY   48  45  87 S8        29.91F
ORR            MOSUNNY   55  36  47 S10       29.87S
COOK           MOSUNNY   55  37  50 SE13G20   29.91S
$$
MNZ012-019>021-037-200000-
   Northeast Minnesota

CITY           SKY/WX    TMP DP  RH WIND       PRES   REMARKS
DULUTH         MOSUNNY   44  32  62 S7        29.99S
ELY            MOSUNNY   46  36  66 S12       29.95F
HIBBING        MOSUNNY   59  39  47 S13G21    29.92F
EVELETH        MOSUNNY   54  36  50 S15       29.95S
DULUTH HARBOR  PTSUNNY   34  30  86 CALM      30.04S
TWO HARBORS    PTSUNNY   43  30  61 CALM      29.99S
SILVER BAY     PTSUNNY   37  34  87 CALM      30.01R
GRAND MARAIS     N/A     37  31  78 NE7       30.05F
G MARAIS ARPRT CLOUDY    34  27  75 CALM      30.02S
$$
MNZ029>031-032-039>041-046>048-054>057-064-200000-
   West Central Minnesota

CITY           SKY/WX    TMP DP  RH WIND       PRES   REMARKS
FERGUS FALLS   SUNNY     66  21  18 W16       29.90S
WHEATON        SUNNY     72  34  25 W10       29.96R
MORRIS         MOSUNNY   70  30  23 W15       29.94S
ALEXANDRIA     MOSUNNY   66  29  24 W12       29.96R
ELBOW LAKE     FAIR      67  31  26 W14G20    29.95R
WADENA         SUNNY     64  34  32 W13G24    29.94R
GLENWOOD       MOSUNNY   66  30  26 SW8       29.96S
APPLETON       MOSUNNY   72  27  18 W12       29.96S
BENSON         MOSUNNY   68  32  26 W7        29.97R
ORTONVILLE     MOSUNNY   68  27  21 W7        29.96R
MADISON        MOSUNNY   72  30  21 SW7       29.97S
WILLMAR        FAIR      63  43  48 W6        29.99F
$$
MNZ033>034-036-042>043-049>051-058-059-200000-
   Central Minnesota

CITY           SKY/WX    TMP DP  RH WIND       PRES   REMARKS
ST CLOUD       PTSUNNY   63  46  54 SW5       29.96F
SAUK CENTRE    FAIR      65  35  32 SW9       29.96S
PAYNESVILLE    CLOUDY    63  39  41 CALM      29.98S
AITKIN         MOSUNNY   61  43  51 S10G17    29.93S
PINE RIVER     SUNNY     64  36  34 SW12G18   29.96R
BRAINERD       SUNNY     69  42  37 SW9       29.93S
STAPLES        MOSUNNY   66  28  24 W13       29.94R
LONG PRAIRIE   FAIR      64  36  34 SW7       29.95S
LITTLE FALLS   MOSUNNY   63  41  45 S10       29.96S
LITCHFIELD     CLOUDY    61  46  59 NW3       29.98S
BUFFALO        CLOUDY    60  46  58 CALM      29.99R
MAPLE LAKE     CLOUDY    61  49  63 CALM      29.98S
$$
MNZ037-044-045-052-053-200000-
   East Central Minnesota

CITY           SKY/WX    TMP DP  RH WIND       PRES   REMARKS
PRINCETON      PTSUNNY   52  46  82 CALM      29.98S
MORA           PTSUNNY   54  41  62 CALM      30.00F
CAMBRIDGE      LGT RAIN  55  45  67 NW8       29.95F
RUSH CITY      CLOUDY    53  40  59 CALM      29.98R
MOOSE LAKE     MOSUNNY   55  37  50 S12       29.97S
HINCKLEY       FAIR      50  41  71 CALM      29.99S
CLOQUET        MOSUNNY   48  34  57 SE6       29.98S
MCGREGOR       MOSUNNY   59  43  55 S9        29.95F
$$
MNZ071>073-080-081-089-090-097-098-200000-
   Southwest Minnesota

CITY           SKY/WX    TMP DP  RH WIND       PRES   REMARKS
MONTEVIDEO     MOSUNNY   64  43  45 SW8       30.00R
GRANITE FALLS  PTSUNNY   63  42  46 W8        30.01R
CANBY          PTSUNNY   64  34  32 SW5       30.00S
MARSHALL       CLOUDY    64  37  36 W10       29.99S
REDWOOD FALLS  CLOUDY    62  45  53 NW9       29.99R
OLIVIA         PTSUNNY   61  46  59 NW7       29.98R
PIPESTONE      CLOUDY    64  32  29 N3        29.99S
WINDOM         CLOUDY    64  46  52 N13       29.98R
WORTHINGTON    CLOUDY    68  43  40 NW9       30.01R
JACKSON        CLOUDY    70  45  40 W8        29.98S
TRACY          CLOUDY    63  40  43 N6        30.00R
SLAYTON        CLOUDY    64  37  38 N7        30.01R
$$
MNZ065>067-074>077-082>085-091>093-200000-
   South Central Minnesota

CITY           SKY/WX    TMP DP  RH WIND       PRES   REMARKS
MANKATO        CLOUDY    64  52  63 W7        29.97S
NEW ULM        CLOUDY    64  50  59 N6        29.97R
ST JAMES       LGT RAIN  70  48  46 SW8       29.97S
FAIRMONT       CLOUDY    72  45  37 SW6       29.99S
GLENCOE        CLOUDY    64  47  55 NW3       29.97R
FARIBAULT      CLOUDY    70  43  37 S5        29.98S
OWATONNA       CLOUDY    72  46  40 S10G20    29.97F
WASECA         CLOUDY    68  50  52 S7        29.98F
ALBERT LEA     PTSUNNY   72  43  35 S16G23    29.98F
$$
MNZ078>079-086>088-094>096-200000-
   Southeast Minnesota

CITY           SKY/WX    TMP DP  RH WIND       PRES   REMARKS
ROCHESTER      CLOUDY    69  45  41 S20G31    30.02F
RED WING       CLOUDY    70  41  35 S9G20     29.98S
STANTON        CLOUDY    68  47  47 S9G17     29.96F
DODGE CENTER   PTSUNNY   72  39  30 S22G28    30.00F
WINONA           N/A    N/A N/A N/A MISG        N/A
AUSTIN         PTSUNNY   72  39  30 S14G22    30.01S
PRESTON        PTSUNNY   70  42  36 S18G24    30.06S
$$
ABBREVIATIONS USED IN REMARKS
   TC - TEMPERATURES IN CELSIUS
  WCI - WIND CHILL INDEX
   HX - HEAT INDEX
  VSB - VISIBILITY
$$


USA.gov is the U.S. government's official web portal to all federal, state and local government web resources and services.